Weather History for Kimball, NE

Change the Weather History Date:

Wednesday, January 30, 2013

  Actual Average (KSNY) Record (KSNY)
Temperature  
Mean Temperature 18 °F 30 °F  
Max Temperature 35 °F 42 °F 66 °F (2012)
Min Temperature 2 °F 17 °F -15 °F (1951)
Degree Days  
Heating Degree Days 46 35  
Month to date heating degree days 1078  
Since 1 July heating degree days 3625  
Cooling Degree Days 0 0  
Month to date cooling degree days 0  
Year to date cooling degree days 0  
Moisture  
Dew Point 13 °F    
Average Humidity 71    
Maximum Humidity 83    
Minimum Humidity 53    
Precipitation  
Precipitation 0.00 in 0.01 in 0.15 in (1996)
Month to date precipitation 0.19  
Year to date precipitation 0.19  
Sea Level Pressure  
Sea Level Pressure 29.80 in    
Wind  
Wind Speed 13 mph (WNW)    
Max Wind Speed 24 mph    
Max Gust Speed 32 mph    
Visibility 10 miles    
Events      
T = Trace of Precipitation, MM = Missing Value Source: NWS Daily Summary

Daily Weather History Graph

Daily Weather History Graph

Search for Another Location

Airport:

Trip Planner

Search our weather history database for the weather conditions in past years. The results will help you decide how hot, cold, wet, or windy it might be!

Date:

Astronomy

Jan. 30, 2013 Rise Set
Actual Time 8:07 AM CST 6:09 PM CST
Civil Twilight 7:38 AM CST 6:38 PM CST
Nautical Twilight 7:04 AM CST 7:11 PM CST
Astronomical Twilight 6:32 AM CST 7:44 PM CST
Moon 10:13 PM CST (1/30) 9:33 AM CST (1/30)
Length of Visible Light 11h 00m
Length of Day
10h 01m
Waning Gibbous, 87% of the Moon is Illuminated
Jan 30
Waning Gibbous
Feb 3
Last Quarter
Feb 10
New
Feb 17
First Quarter
Feb 25
Full

Hourly Weather History & Observations

Time (CST) Temp. Windchill Dew Point Humidity Pressure Visibility Wind Dir Wind Speed Gust Speed Precip Events Conditions
12:15 AM 13.6 °F -3.5 °F 8.6 °F 80% 29.88 in 10.0 mi NNW 18.4 mph 26.5 mph N/A   Clear
12:35 AM 12.2 °F -4.8 °F 7.2 °F 80% 29.88 in 10.0 mi NNW 17.3 mph 24.2 mph N/A   Clear
12:55 AM 11.3 °F -4.3 °F 5.9 °F 79% 29.89 in 10.0 mi NNW 13.8 mph 23.0 mph N/A   Clear
1:15 AM 10.4 °F -6.6 °F 5.5 °F 81% 29.88 in 10.0 mi NNW 16.1 mph 23.0 mph N/A   Clear
1:35 AM 9.5 °F -5.2 °F 4.6 °F 81% 29.88 in 10.0 mi NNW 11.5 mph - N/A   Clear
1:55 AM 8.4 °F -2.8 °F 3.4 °F 80% 29.89 in 10.0 mi NNW 6.9 mph - N/A   Clear
2:15 AM 9.3 °F -6.1 °F 4.1 °F 79% 29.88 in 10.0 mi NW 12.7 mph - N/A   Clear
2:35 AM 9.3 °F -5.4 °F 3.7 °F 78% 29.88 in 10.0 mi NW 11.5 mph - N/A   Clear
2:55 AM 8.6 °F -6.3 °F 3.0 °F 78% 29.87 in 10.0 mi NW 11.5 mph - N/A   Clear
3:15 AM 8.2 °F -6.0 °F 3.0 °F 79% 29.87 in 10.0 mi NW 10.4 mph - N/A   Clear
3:35 AM 9.0 °F -7.3 °F 3.2 °F 77% 29.86 in 10.0 mi NW 13.8 mph - N/A   Clear
3:55 AM 8.2 °F -8.2 °F 2.7 °F 78% 29.86 in 10.0 mi NW 13.8 mph 18.4 mph N/A   Clear
4:15 AM 8.6 °F -7.0 °F 3.0 °F 78% 29.85 in 10.0 mi WNW 12.7 mph - N/A   Clear
4:35 AM 9.1 °F -5.6 °F 2.8 °F 76% 29.85 in 10.0 mi NW 11.5 mph - N/A   Clear
4:55 AM 9.0 °F -5.1 °F 2.8 °F 76% 29.84 in 10.0 mi NW 10.4 mph - N/A   Clear
5:15 AM 7.3 °F -7.1 °F 2.1 °F 79% 29.83 in 10.0 mi NW 10.4 mph - N/A   Clear
5:55 AM 3.2 °F -13.1 °F -1.3 °F 82% 29.83 in 10.0 mi WNW 11.5 mph - N/A   Clear
6:15 AM 3.9 °F -12.2 °F -0.2 °F 83% 29.83 in 10.0 mi West 11.5 mph - N/A   Clear
6:35 AM 2.7 °F -10.9 °F -1.7 °F 82% 29.81 in 10.0 mi WNW 8.1 mph - N/A   Clear
6:55 AM 2.1 °F - -2.2 °F 82% 29.81 in 10.0 mi Calm Calm - N/A   Clear
7:15 AM 2.1 °F -11.6 °F -2.0 °F 83% 29.80 in 10.0 mi WSW 8.1 mph - N/A   Clear
7:35 AM 4.5 °F -10.7 °F 0.3 °F 83% 29.80 in 10.0 mi West 10.4 mph - N/A   Clear
7:55 AM 10.9 °F -4.1 °F 4.6 °F 76% 29.80 in 10.0 mi West 12.7 mph - N/A   Clear
8:15 AM 11.3 °F -2.2 °F 5.0 °F 76% 29.79 in 10.0 mi West 10.4 mph - N/A   Scattered Clouds
8:35 AM 11.3 °F 0.7 °F 5.0 °F 76% 29.78 in 10.0 mi West 6.9 mph - N/A   Overcast
8:55 AM 12.2 °F 1.7 °F 6.3 °F 77% 29.78 in 10.0 mi West 6.9 mph - N/A   Overcast
9:15 AM 11.7 °F 1.1 °F 6.6 °F 80% 29.78 in 10.0 mi West 6.9 mph - N/A   Overcast
9:35 AM 16.7 °F 4.5 °F 8.8 °F 71% 29.77 in 10.0 mi West 10.4 mph - N/A   Overcast
9:55 AM 17.4 °F 4.7 °F 9.0 °F 69% 29.77 in 10.0 mi West 11.5 mph - N/A   Overcast
10:15 AM 20.7 °F 6.1 °F 11.8 °F 69% 29.77 in 10.0 mi WNW 17.3 mph - N/A   Overcast
10:35 AM 23.9 °F 10.3 °F 14.2 °F 66% 29.77 in 10.0 mi WNW 17.3 mph - N/A   Overcast
10:55 AM 25.3 °F 13.1 °F 15.3 °F 66% 29.77 in 10.0 mi WNW 15.0 mph - N/A   Overcast
11:15 AM 27.5 °F 14.2 °F 16.5 °F 63% 29.77 in 10.0 mi WNW 19.6 mph 27.6 mph N/A   Overcast
11:35 AM 29.1 °F 17.5 °F 17.6 °F 62% 29.77 in 10.0 mi NW 16.1 mph 24.2 mph N/A   Overcast
11:55 AM 30.0 °F 18.3 °F 17.2 °F 59% 29.77 in 10.0 mi NW 17.3 mph 25.3 mph N/A   Mostly Cloudy
12:15 PM 30.2 °F 17.8 °F 17.4 °F 59% 29.77 in 10.0 mi NW 19.6 mph 25.3 mph N/A   Scattered Clouds
12:35 PM 30.9 °F 18.1 °F 17.2 °F 57% 29.77 in 10.0 mi NW 21.9 mph 29.9 mph N/A   Mostly Cloudy
12:55 PM 31.3 °F 18.9 °F 15.8 °F 53% 29.76 in 10.0 mi NW 20.7 mph 32.2 mph N/A   Mostly Cloudy
1:15 PM 31.6 °F 18.4 °F 17.6 °F 56% 29.75 in 10.0 mi WNW 24.2 mph 31.1 mph N/A   Overcast
1:35 PM 32.4 °F 19.4 °F 19.9 °F 60% 29.75 in 10.0 mi WNW 24.2 mph 29.9 mph N/A   Mostly Cloudy
1:55 PM 32.0 °F 18.9 °F 18.7 °F 58% 29.75 in 10.0 mi WNW 24.2 mph 32.2 mph N/A   Mostly Cloudy
2:15 PM 32.9 °F 21.0 °F 19.4 °F 58% 29.74 in 10.0 mi NW 20.7 mph 32.2 mph N/A   Scattered Clouds
2:35 PM 33.4 °F 21.1 °F 19.0 °F 56% 29.74 in 10.0 mi NW 23.0 mph 31.1 mph N/A   Scattered Clouds
2:55 PM 34.2 °F 22.1 °F 18.9 °F 54% 29.73 in 10.0 mi NW 23.0 mph 28.8 mph N/A   Scattered Clouds
3:15 PM 33.4 °F 21.4 °F 19.6 °F 57% 29.73 in 10.0 mi NW 21.9 mph 28.8 mph N/A   Scattered Clouds
3:35 PM 34.9 °F 23.3 °F 20.7 °F 56% 29.74 in 10.0 mi NW 21.9 mph 28.8 mph N/A   Mostly Cloudy
3:55 PM 35.1 °F 23.3 °F 20.1 °F 55% 29.74 in 10.0 mi NW 23.0 mph 27.6 mph N/A   Mostly Cloudy
4:15 PM 35.1 °F 24.1 °F 20.5 °F 55% 29.74 in 10.0 mi NW 19.6 mph 24.2 mph N/A   Scattered Clouds
4:35 PM 33.1 °F 22.6 °F 20.1 °F 59% 29.75 in 10.0 mi NW 16.1 mph - N/A   Clear
4:55 PM 32.9 °F 23.2 °F 21.0 °F 62% 29.76 in 10.0 mi NW 13.8 mph - N/A   Scattered Clouds
5:15 PM 32.0 °F 23.0 °F 21.0 °F 64% 29.76 in 10.0 mi NW 11.5 mph - N/A   Scattered Clouds
5:35 PM 30.9 °F 21.7 °F 21.0 °F 67% 29.77 in 10.0 mi NW 11.5 mph - N/A   Scattered Clouds
5:55 PM 29.7 °F 21.3 °F 20.3 °F 68% 29.77 in 10.0 mi NW 9.2 mph - N/A   Scattered Clouds
6:15 PM 29.3 °F 20.8 °F 20.7 °F 70% 29.77 in 10.0 mi NW 9.2 mph - N/A   Mostly Cloudy
6:35 PM 29.3 °F 20.2 °F 21.2 °F 72% 29.78 in 10.0 mi NW 10.4 mph - N/A   Overcast
6:55 PM 30.0 °F 21.7 °F 21.2 °F 70% 29.79 in 10.0 mi NW 9.2 mph - N/A   Overcast
7:15 PM 30.0 °F 23.2 °F 21.2 °F 70% 29.79 in 10.0 mi NNW 6.9 mph - N/A   Overcast
7:35 PM 29.8 °F 23.0 °F 21.0 °F 70% 29.79 in 10.0 mi NNW 6.9 mph - N/A   Overcast
7:55 PM 29.7 °F 24.7 °F 20.5 °F 69% 29.79 in 10.0 mi NW 4.6 mph - N/A   Overcast
8:15 PM 29.5 °F 23.4 °F 20.7 °F 70% 29.80 in 10.0 mi WNW 5.8 mph - N/A   Overcast
8:35 PM 28.2 °F 20.2 °F 21.2 °F 75% 29.80 in 10.0 mi West 8.1 mph - N/A   Overcast
8:55 PM 27.1 °F 18.9 °F 21.6 °F 80% 29.80 in 10.0 mi WSW 8.1 mph - N/A   Overcast
9:15 PM 27.5 °F 19.3 °F 21.2 °F 77% 29.80 in 10.0 mi West 8.1 mph - N/A   Overcast
9:35 PM 27.1 °F 18.9 °F 21.2 °F 78% 29.80 in 10.0 mi West 8.1 mph - N/A   Overcast
9:55 PM 27.3 °F 19.9 °F 21.2 °F 78% 29.80 in 10.0 mi West 6.9 mph - N/A   Overcast
10:15 PM 27.3 °F 19.1 °F 21.6 °F 79% 29.79 in 10.0 mi West 8.1 mph - N/A   Overcast
10:35 PM 27.3 °F 20.9 °F 21.7 °F 80% 29.80 in 10.0 mi West 5.8 mph - N/A   Overcast
10:55 PM 26.6 °F 20.0 °F 21.2 °F 80% 29.79 in 10.0 mi West 5.8 mph - N/A   Overcast
11:15 PM 26.6 °F - 21.2 °F 80% 29.80 in 10.0 mi Calm Calm - N/A   Overcast
11:35 PM 26.2 °F 19.6 °F 21.0 °F 81% 29.81 in 10.0 mi WNW 5.8 mph - N/A   Overcast
11:55 PM 28.0 °F 20.8 °F 21.9 °F 78% 29.81 in 10.0 mi NW 6.9 mph - N/A   Overcast